TELSTAR 18V (APSTAR 5C)

Last updated on Jan. 29, 2020, 4:37 a.m. UTC

1 43611U 18069A   20028.81408403 -.00000295  00000-0  00000-0 0  9996
2 43611   0.0184  73.5998 0001796 233.1450 251.8358  1.00272288  5256
UTC
Height (km)
Latitude
Longitude
Inclination
Orbital Period
UTC large
Height (km)
Speed (km/s)
/
Latitude / Longitude
Inclination (degrees)
Orbital Period (minutes)
Azimuth
Elevation
Range (km)
Doppler Factor
iOS Compass Heading
iOS Angle

Next 30 passes for location: Hong Kong

Rise time Rise Azimuth (degrees) Set time Set Azimuth (degrees) Duration Max altitude (degrees)

No matching passes for this satellites